When you browse on this site, cookies collect data to enhance your experience and personalize the content and advertising you see.
Visit our Privacy Policy to learn more. By continuing to use the site, you agree to this use of cookies and data.
  • In United Kingdom
  • List of Countries
  • For 7 days
  • Water Temperature
  • Weather Map
  • Weather Widgets
  • user-avatar
    Login

    Hourly Weather Glasgow

    Today, 19 October, Saturday

    Time Temperature Precipitation Wind Pressure Humidity
    00:00 +9°C° 0.5 mm 3 mps 746 mmHg 95%
    01:00 +8°C° 0.4 mm 5 mps 746 mmHg 94%
    02:00 +8°C° 0.4 mm 6 mps 746 mmHg 94%
    03:00 +8°C° 0.4 mm 7 mps 746 mmHg 93%
    04:00 +7°C° 0.9 mm 8 mps 746 mmHg 93%
    05:00 +7°C° 0.9 mm 10 mps 746 mmHg 92%
    06:00 +7°C° 0.9 mm 11 mps 747 mmHg 92%
    07:00 +7°C° 1.1 mm 11 mps 747 mmHg 90%
    08:00 +7°C° 1.1 mm 10 mps 747 mmHg 88%
    09:00 +7°C° 1.1 mm 10 mps 747 mmHg 87%
    10:00 +7°C° 0.2 mm 10 mps 748 mmHg 85%
    11:00 +8°C° 0.2 mm 9 mps 748 mmHg 83%
    12:00 +8°C° 0.2 mm 9 mps 749 mmHg 82%
    13:00 +8°C° 0.1 mm 9 mps 749 mmHg 82%
    14:00 +8°C° 0.1 mm 9 mps 749 mmHg 82%
    15:00 +9°C° 0.1 mm 8 mps 749 mmHg 81%
    16:00 +7°C° 0.1 mm 8 mps 750 mmHg 85%
    17:00 +6°C° 0.1 mm 8 mps 751 mmHg 88%
    18:00 +6°C° 0.1 mm 7 mps 751 mmHg 91%
    19:00 +5°C° 0.1 mm 7 mps 752 mmHg 91%
    20:00 +5°C° 0.1 mm 7 mps 752 mmHg 91%
    21:00 +5°C° 0.1 mm 7 mps 753 mmHg 91%
    22:00 +5°C° 0.1 mm 7 mps 754 mmHg 89%
    23:00 +6°C° 0.1 mm 7 mps 754 mmHg 88%

    Tomorrow, 20 October, Sunday

    Time Temperature Precipitation Wind Pressure Humidity
    00:00 +6°C° 0.1 mm 8 mps 755 mmHg 87%
    01:00 +6°C° 0.1 mm 8 mps 755 mmHg 86%
    02:00 +5°C° 0.1 mm 8 mps 755 mmHg 86%
    03:00 +5°C° 0.1 mm 8 mps 755 mmHg 85%
    04:00 +5°C° 0.1 mm 9 mps 756 mmHg 85%
    05:00 +5°C° 0.1 mm 9 mps 756 mmHg 85%
    06:00 +3°C° 0.1 mm 9 mps 757 mmHg 84%
    07:00 +5°C° 0 mm 10 mps 757 mmHg 84%
    08:00 +5°C° 0 mm 10 mps 758 mmHg 83%
    09:00 +4°C° 0 mm 11 mps 758 mmHg 83%
    10:00 +6°C° 0.1 mm 10 mps 759 mmHg 82%
    11:00 +6°C° 0.1 mm 10 mps 759 mmHg 81%
    12:00 +6°C° 0.1 mm 10 mps 760 mmHg 81%
    13:00 +6°C° 0 mm 10 mps 760 mmHg 81%
    14:00 +6°C° 0 mm 10 mps 760 mmHg 81%
    15:00 +6°C° 0 mm 9 mps 761 mmHg 81%
    16:00 +6°C° 0 mm 9 mps 761 mmHg 82%
    17:00 +5°C° 0 mm 9 mps 762 mmHg 82%
    18:00 +5°C° 0 mm 9 mps 763 mmHg 83%
    19:00 +4°C° 0 mm 8 mps 763 mmHg 84%
    20:00 +4°C° 0 mm 7 mps 764 mmHg 86%
    21:00 +3°C° 0 mm 7 mps 764 mmHg 87%
    22:00 +3°C° 0 mm 7 mps 765 mmHg 87%
    23:00 +3°C° 0 mm 6 mps 765 mmHg 86%

    Day after tomorrow, 21 October, Monday

    Time Temperature Precipitation Wind Pressure Humidity
    00:00 +2°C° 0 mm 6 mps 765 mmHg 86%
    01:00 +2°C° 0 mm 6 mps 765 mmHg 85%
    02:00 +2°C° 0 mm 5 mps 765 mmHg 84%
    03:00 +2°C° 0 mm 5 mps 765 mmHg 83%
    04:00 +3°C° 0 mm 4 mps 765 mmHg 82%
    05:00 +3°C° 0 mm 4 mps 765 mmHg 82%
    06:00 +1°C° 0 mm 4 mps 766 mmHg 81%
    07:00 +3°C° 0 mm 3 mps 766 mmHg 79%
    08:00 +3°C° 0 mm 3 mps 765 mmHg 77%
    09:00 +4°C° 0 mm 3 mps 765 mmHg 75%
    10:00 +5°C° 0 mm 3 mps 765 mmHg 71%
    11:00 +7°C° 0 mm 2 mps 765 mmHg 67%
    12:00 +8°C° 0 mm 2 mps 765 mmHg 63%
    13:00 +8°C° 0 mm 2 mps 765 mmHg 63%
    14:00 +8°C° 0 mm 2 mps 765 mmHg 64%
    15:00 +9°C° 0 mm 1 mps 764 mmHg 64%
    16:00 +6°C° 0 mm 2 mps 764 mmHg 70%
    17:00 +5°C° 0 mm 2 mps 764 mmHg 76%
    18:00 +3°C° 0 mm 3 mps 764 mmHg 82%
    19:00 +3°C° 0 mm 3 mps 764 mmHg 82%
    20:00 +3°C° 0 mm 3 mps 763 mmHg 82%
    21:00 +3°C° 0 mm 3 mps 763 mmHg 81%
    22:00 +3°C° 0 mm 3 mps 763 mmHg 80%
    23:00 +3°C° 0 mm 3 mps 762 mmHg 78%

    22 October, Tuesday

    Time Temperature Precipitation Wind Pressure Humidity
    00:00 +3°C° 0 mm 3 mps 762 mmHg 76%
    01:00 +3°C° 0 mm 3 mps 761 mmHg 75%
    02:00 +3°C° 0 mm 3 mps 761 mmHg 74%
    03:00 +4°C° 0 mm 2 mps 760 mmHg 73%
    04:00 +3°C° 0 mm 3 mps 760 mmHg 72%
    05:00 +3°C° 0 mm 3 mps 760 mmHg 72%
    06:00 +3°C° 0 mm 3 mps 760 mmHg 72%
    07:00 +4°C° 0 mm 4 mps 759 mmHg 75%
    08:00 +3°C° 0 mm 5 mps 759 mmHg 77%
    09:00 +4°C° 0 mm 6 mps 759 mmHg 80%
    10:00 +4°C° 0 mm 6 mps 759 mmHg 82%
    11:00 +5°C° 0 mm 7 mps 759 mmHg 85%
    12:00 +5°C° 0 mm 7 mps 758 mmHg 87%
    13:00 +5°C° 0 mm 7 mps 758 mmHg 87%
    14:00 +5°C° 0 mm 7 mps 758 mmHg 87%
    15:00 +6°C° 0 mm 7 mps 757 mmHg 87%
    16:00 +5°C° 0.4 mm 7 mps 757 mmHg 89%
    17:00 +5°C° 0.4 mm 7 mps 757 mmHg 91%
    18:00 +5°C° 0.4 mm 7 mps 757 mmHg 93%
    19:00 +5°C° 0.2 mm 7 mps 757 mmHg 92%
    20:00 +4°C° 0.2 mm 7 mps 757 mmHg 92%
    21:00 +4°C° 0.2 mm 7 mps 757 mmHg 91%
    22:00 +4°C° 0 mm 8 mps 756 mmHg 91%
    23:00 +3°C° 0 mm 9 mps 756 mmHg 90%

    23 October, Wednesday

    Time Temperature Precipitation Wind Pressure Humidity
    00:00 +5°C° 0 mm 9 mps 756 mmHg 89%
    01:00 +5°C° 0 mm 9 mps 755 mmHg 89%
    02:00 +5°C° 0 mm 9 mps 755 mmHg 88%
    03:00 +5°C° 0 mm 9 mps 754 mmHg 87%
    04:00 +6°C° 0.2 mm 10 mps 754 mmHg 88%
    05:00 +6°C° 0.2 mm 10 mps 754 mmHg 88%
    06:00 +6°C° 0.2 mm 10 mps 753 mmHg 88%
    07:00 +6°C° 0 mm 10 mps 753 mmHg 87%
    08:00 +6°C° 0 mm 10 mps 753 mmHg 86%
    09:00 +7°C° 0 mm 10 mps 752 mmHg 85%
    10:00 +7°C° 0 mm 10 mps 752 mmHg 83%
    11:00 +8°C° 0 mm 10 mps 751 mmHg 82%
    12:00 +8°C° 0 mm 11 mps 751 mmHg 81%
    13:00 +8°C° 0 mm 10 mps 750 mmHg 81%
    14:00 +8°C° 0 mm 10 mps 749 mmHg 82%
    15:00 +8°C° 0 mm 10 mps 749 mmHg 83%
    16:00 +8°C° 0.2 mm 10 mps 748 mmHg 85%
    17:00 +8°C° 0.2 mm 10 mps 748 mmHg 88%
    18:00 +8°C° 0.2 mm 11 mps 747 mmHg 90%
    19:00 +8°C° 0 mm 10 mps 747 mmHg 91%
    20:00 +8°C° 0 mm 9 mps 747 mmHg 91%
    21:00 +8°C° 0 mm 9 mps 747 mmHg 91%
    22:00 +9°C° 0.1 mm 8 mps 746 mmHg 92%
    23:00 +7°C° 0.1 mm 8 mps 746 mmHg 93%

    24 October, Thursday

    Time Temperature Precipitation Wind Pressure Humidity
    00:00 +7°C° 0.1 mm 8 mps 746 mmHg 94%
    01:00 +7°C° 0.1 mm 8 mps 746 mmHg 93%
    02:00 +7°C° 0.1 mm 8 mps 745 mmHg 93%
    03:00 +7°C° 0.1 mm 8 mps 745 mmHg 92%
    04:00 +6°C° 0 mm 8 mps 745 mmHg 92%
    05:00 +6°C° 0 mm 8 mps 745 mmHg 92%
    06:00 +6°C° 0 mm 8 mps 744 mmHg 92%
    07:00 +6°C° 0 mm 8 mps 745 mmHg 90%
    08:00 +7°C° 0 mm 9 mps 745 mmHg 87%
    09:00 +7°C° 0 mm 9 mps 745 mmHg 85%
    10:00 +8°C° 0 mm 9 mps 745 mmHg 81%
    11:00 +8°C° 0 mm 9 mps 745 mmHg 78%
    12:00 +10°C° 0 mm 9 mps 745 mmHg 74%
    13:00 +8°C° 0.2 mm 9 mps 745 mmHg 77%
    14:00 +9°C° 0.2 mm 8 mps 745 mmHg 79%
    15:00 +7°C° 0.2 mm 8 mps 745 mmHg 82%
    16:00 +6°C° 0.4 mm 8 mps 746 mmHg 84%
    17:00 +6°C° 0.4 mm 7 mps 747 mmHg 86%
    18:00 +5°C° 0.4 mm 6 mps 747 mmHg 88%
    19:00 +5°C° 0.1 mm 6 mps 748 mmHg 88%
    20:00 +6°C° 0.1 mm 5 mps 749 mmHg 88%
    21:00 +5°C° 0.1 mm 5 mps 750 mmHg 88%
    22:00 +4°C° 0.1 mm 6 mps 751 mmHg 89%
    23:00 +3°C° 0.1 mm 6 mps 752 mmHg 89%
    Show more